Hourly Data Report for October 07, 2012

All times are specified in Local Standard Time (LST). Add 1 hour to adjust for Daylight Saving Time where and when it is observed.

IQALUIT CLIMATE
NUNAVUT

63°44'50.000" N
68°32'40.000" W
33.50 m
2402592
71321
XFB

Download Data

Hourly Data (October 2012)
Hourly Data Report for October 7, 2012
Temp Definition
°C
Dew Point Temp Definition
°C
Rel Hum Definition
%
Wind Dir Definition
10's deg

Wind Spd Definition
km/h
Visibility Definition
km
Stn Press Definition
kPa
Hmdx Definition


Wind Chill Definition


Weather Definition


TIME
00:00 -4.0 -5.9 87 34 7   100.47   -7 LegendNANA
01:00 -2.5 -5.3 81 4 4   100.41   -4 LegendNANA
02:00 -1.3 -5.8 71 10 13   100.35   -6 LegendNANA
03:00 -1.2 -6.3 68 10 13   100.31   -5 LegendNANA
04:00 -1.6 -6.4 70 14 9   100.28   -5 LegendNANA
05:00 -1.4 -6.2 70 12 13   100.26   -6 LegendNANA
06:00 -1.4 -6.6 68 9 15   100.19   -6 LegendNANA
07:00 -1.0 -6.5 66 7 26   100.10   -7 LegendNANA
08:00 -0.1 -5.3 68 7 30   100.05   -7 LegendNANA
09:00 0.7 -5.0 66 7 32   100.01     LegendNANA
10:00 1.2 -5.0 63 7 41   99.96     LegendNANA
11:00 1.4 -5.6 60 7 39   99.92     LegendNANA
12:00 1.3 -5.9 59 6 43   99.89     LegendNANA
13:00 1.5 -6.5 55 7 43   99.89     LegendNANA
14:00 0.9 -6.1 59 6 37   99.89     LegendNANA
15:00 0.5 -6.8 58 5 32   99.89     LegendNANA
16:00 0.2 -6.3 62 2 15   99.93     LegendNANA
17:00 -0.5 -6.3 65 1 17   99.93   -5 LegendNANA
18:00 -2.2 -6.0 75 32 15   99.95   -7 LegendNANA
19:00 -1.8 -6.6 70 36 17   99.96   -7 LegendNANA
20:00 -2.0 -6.4 72 1 28   99.96   -9 LegendNANA
21:00 -2.8 -6.7 74 36 22   99.99   -9 LegendNANA
22:00 -2.9 -7.1 73 3 30   99.98   -10 LegendNANA
23:00 -3.3 -8.1 69 4 28   100.01   -11 LegendNANA

Notes on Data Quality.

Legend

  • E = Estimated
  • M = Missing
  • NA = Not Available
  • ‡ = Partner data that is not subject to review by the National Climate Archives
Date modified: